GW6850 Weather Reports


Display with metric or nautical units.
time (UTC)temp
F
wind
direction
speed
MPH
gust
MPH
rain 1hr
in
rain 24hr
in
rain mn
in
humidity
%
barometer
mb
20260505004009 66 9 4.0 8.0 0.00 0.00 0.00 40 1007.7
20260505003508 67 359 6.0 11.0 0.00 0.00 0.00 39 1007.9
20260505003008 68 339 8.0 11.0 0.00 0.00 0.00 37 1007.8
20260505002509 68 102 4.0 6.0 0.00 0.00 0.00 37 1007.4
20260505002009 68 101 5.0 7.0 0.00 0.00 0.00 38 1007.4
20260505001508 68 136 6.0 9.0 0.00 0.00 0.00 39 1007.4
20260505001008 68 136 7.0 9.0 0.00 0.00 0.00 39 1007.4
20260505000508 68 126 6.0 7.0 0.00 0.00 0.00 39 1007.5
20260505000008 68 120 4.0 7.0 0.00 0.00 0.00 43 1007.7
20260504235508 68 135 4.0 6.0 0.00 0.00 0.00 42 1007.5
20260504235008 68 140 4.0 6.0 0.00 0.00 0.00 42 1007.4
20260504234509 68 141 5.0 7.0 0.00 0.00 0.00 40 1007.4
20260504234010 69 155 4.0 5.0 0.00 0.00 0.00 41 1007.7
20260504233508 69 124 5.0 7.0 0.00 0.00 0.00 40 1007.5
20260504233008 69 140 5.0 7.0 0.00 0.00 0.00 39 1007.5
20260504232509 69 155 5.0 7.0 0.00 0.00 0.00 39 1007.8
20260504232008 69 158 6.0 7.0 0.00 0.00 0.00 38 1007.5
20260504231509 69 161 4.0 7.0 0.00 0.00 0.00 38 1007.5
20260504231008 69 163 5.0 7.0 0.00 0.00 0.00 36 1007.7
20260504230509 69 159 5.0 9.0 0.00 0.00 0.00 37 1007.7
20260504230008 70 168 6.0 11.0 0.00 0.00 0.00 35 1007.5
20260504225511 70 168 6.0 8.0 0.00 0.00 0.00 33 1007.5
20260504225008 70 156 6.0 9.0 0.00 0.00 0.00 34 1007.4
20260504224509 70 176 3.0 5.0 0.00 0.00 0.00 32 1007.5
20260504224009 71 193 2.0 4.0 0.00 0.00 0.00 33 1007.5
20260504223508 71 152 2.0 3.0 0.00 0.00 0.00 34 1007.5
20260504223009 71 218 2.0 4.0 0.00 0.00 0.00 33 1007.4
20260504222508 71 111 1.0 3.0 0.00 0.00 0.00 32 1007.5
20260504222008 71 65 2.0 4.0 0.00 0.00 0.00 30 1007.5
20260504221509 71 76 2.0 4.0 0.00 0.00 0.00 29 1007.5
20260504221009 72 269 4.0 5.0 0.00 0.00 0.00 34 1007.8
20260504220508 71 315 2.0 3.0 0.00 0.00 0.00 32 1007.7
20260504220009 72 347 3.0 5.0 0.00 0.00 0.00 30 1007.8
20260504215509 72 342 4.0 6.0 0.00 0.00 0.00 29 1007.8
20260504215008 72 257 4.0 6.0 0.00 0.00 0.00 32 1007.8
20260504214509 72 295 2.0 3.0 0.00 0.00 0.00 30 1007.9
20260504214009 72 39 2.0 4.0 0.00 0.00 0.00 31 1008.1
20260504213509 71 2 1.0 2.0 0.00 0.00 0.00 30 1008.0
20260504213010 71 282 6.0 8.0 0.00 0.00 0.00 33 1008.3
20260504212508 72 332 6.0 9.0 0.00 0.00 0.00 31 1008.3
20260504212008 71 327 4.0 6.0 0.00 0.00 0.00 32 1008.6
20260504211509 71 347 4.0 6.0 0.00 0.00 0.00 34 1008.6
20260504211008 71 47 4.0 7.0 0.00 0.00 0.00 34 1008.6
20260504210509 70 26 4.0 8.0 0.00 0.00 0.00 35 1008.8
20260504210008 70 7 5.0 9.0 0.00 0.00 0.00 35 1008.9
20260504205508 69 352 5.0 8.0 0.00 0.00 0.00 35 1008.9
20260504205009 69 358 3.0 6.0 0.00 0.00 0.00 36 1009.1
20260504204510 69 358 8.0 12.0 0.00 0.00 0.00 36 1009.3
20260504204008 69 344 9.0 13.0 0.00 0.00 0.00 36 1009.3
20260504203508 68 350 10.0 16.0 0.00 0.00 0.00 37 1009.3
20260504203009 68 339 7.0 13.0 0.00 0.00 0.00 39 1009.4
20260504202508 68 347 10.0 13.0 0.00 0.00 0.00 39 1009.5
20260504202008 70 351 9.0 13.0 0.00 0.00 0.00 38 1009.1
20260504201509 71 325 13.0 19.0 0.00 0.00 0.00 36 1009.5
20260504201009 71 281 6.0 8.0 0.00 0.00 0.00 34 1009.4
20260504200509 71 305 9.0 12.0 0.00 0.00 0.00 33 1009.3
20260504200009 71 269 5.0 7.0 0.00 0.00 0.00 34 1009.4
20260504195508 71 291 7.0 13.0 0.00 0.00 0.00 33 1009.4
20260504195008 70 265 8.0 10.0 0.00 0.00 0.00 35 1009.5
20260504194024 69 290 6.0 8.0 0.00 0.00 0.00 34 1009.6
20260504193509 69 265 9.0 13.0 0.00 0.00 0.00 37 1009.8
20260504193008 69 289 10.0 12.0 0.00 0.00 0.00 36 1009.8
20260504192509 69 295 9.0 11.0 0.00 0.00 0.00 37 1010.0
20260504192008 69 305 9.0 12.0 0.00 0.00 0.00 36 1010.0
20260504191508 69 262 5.0 7.0 0.00 0.00 0.00 40 1010.1
20260504191009 69 326 4.0 7.0 0.00 0.00 0.00 39 1010.2
20260504190509 68 317 7.0 10.0 0.00 0.00 0.00 38 1010.1
20260504190009 68 17 3.0 6.0 0.00 0.00 0.00 38 1010.3
20260504185509 68 322 8.0 12.0 0.00 0.00 0.00 39 1010.4
20260504185009 67 317 6.0 9.0 0.00 0.00 0.00 42 1010.4
20260504184510 67 295 9.0 11.0 0.00 0.00 0.00 38 1010.5
20260504184008 67 285 9.0 12.0 0.00 0.00 0.00 38 1010.6
20260504183509 65 10 0.0 2.0 0.00 0.00 0.00 44 1010.9
20260504183008 66 233 3.0 5.0 0.00 0.00 0.00 41 1011.0
20260504182509 66 342 5.0 8.0 0.00 0.00 0.00 41 1011.1
20260504182009 66 313 7.0 12.0 0.00 0.00 0.00 43 1011.2
20260504181509 65 74 3.0 6.0 0.00 0.00 0.00 47 1011.3
20260504181009 64 349 4.0 5.0 0.00 0.00 0.00 44 1011.3
20260504180508 65 91 2.0 4.0 0.00 0.00 0.00 52 1011.6
20260504180008 65 130 3.0 6.0 0.00 0.00 0.00 43 1011.6
20260504175508 64 129 1.0 2.0 0.00 0.00 0.00 42 1011.7
20260504175009 64 37 2.0 4.0 0.00 0.00 0.00 42 1011.8
20260504174509 65 357 2.0 5.0 0.00 0.00 0.00 43 1011.8
20260504174012 64 240 1.0 2.0 0.00 0.00 0.00 43 1011.9
20260504173508 65 279 6.0 10.0 0.00 0.00 0.00 44 1011.9
20260504173009 64 307 4.0 7.0 0.00 0.00 0.00 46 1012.0
20260504172508 64 331 5.0 7.0 0.00 0.00 0.00 44 1012.1
20260504172008 63 308 5.0 6.0 0.00 0.00 0.00 46 1012.2
20260504171508 63 332 4.0 5.0 0.00 0.00 0.00 48 1012.4
20260504171008 64 326 3.0 4.0 0.00 0.00 0.00 45 1012.4
20260504170508 64 346 3.0 4.0 0.00 0.00 0.00 44 1012.2
20260504151009 61 135 5.0 6.0 0.00 0.00 0.00 50 1012.9
20260504150508 61 104 4.0 7.0 0.00 0.00 0.00 50 1012.9
20260504141009 60 125 6.0 9.0 0.00 0.00 0.00 54 1012.9
20260504140509 59 117 6.0 9.0 0.00 0.00 0.00 55 1012.9
20260504110508 57 138 4.0 6.0 0.00 0.00 0.00 57 1012.6
20260504100509 60 142 6.0 8.0 0.00 0.00 0.00 44 1012.8
20260504081509 55 99 2.0 2.0 0.00 0.00 0.00 42 1012.0
20260504081009 55 28 0.0 1.0 0.00 0.00 0.00 41 1011.9
20260504080508 55 83 1.0 1.0 0.00 0.00 0.00 37 1011.9
20260504050513 53 90 2.0 2.0 0.00 0.00 0.00 40 1010.9
20260504050011 53 56 1.0 1.0 0.00 0.00 0.00 39 1010.9
20260504045508 52 55 1.0 2.0 0.00 0.00 0.00 38 1010.9
20260504045008 52 284 0.0 1.0 0.00 0.00 0.00 41 1010.9
20260504044509 52 73 2.0 2.0 0.00 0.00 0.00 42 1010.9
20260504044008 52 70 0.0 1.0 0.00 0.00 0.00 41 1010.9
20260504043508 53 56 1.0 1.0 0.00 0.00 0.00 42 1010.9
20260504043008 53 87 1.0 2.0 0.00 0.00 0.00 39 1010.9
20260504042509 52 55 1.0 1.0 0.00 0.00 0.00 38 1010.9
20260504042008 52 63 3.0 3.0 0.00 0.00 0.00 42 1010.9
20260504041508 53 43 1.0 1.0 0.00 0.00 0.00 43 1010.9
20260504041009 53 342 2.0 3.0 0.00 0.00 0.00 41 1010.9
20260504040508 53 56 2.0 3.0 0.00 0.00 0.00 41 1011.0
20260504040009 52 58 2.0 3.0 0.00 0.00 0.00 43 1011.0
20260504035508 53 338 1.0 2.0 0.00 0.00 0.00 44 1011.0
20260504035009 53 19 2.0 3.0 0.00 0.00 0.00 49 1010.9
20260504034509 54 330 1.0 2.0 0.00 0.00 0.00 48 1010.9
20260504034008 55 70 2.0 3.0 0.00 0.00 0.00 47 1010.9
20260504033508 55 79 2.0 2.0 0.00 0.00 0.00 42 1010.8
20260504033013 55 68 2.0 3.0 0.00 0.00 0.00 43 1010.8
20260504032509 55 80 0.0 1.0 0.00 0.00 0.00 44 1010.8
20260504032008 55 58 2.0 2.0 0.00 0.00 0.00 45 1010.9
20260504031508 55 61 2.0 3.0 0.00 0.00 0.00 44 1010.9
20260504031009 56 41 0.0 1.0 0.00 0.00 0.00 46 1010.8
20260504030508 57 3 0.0 1.0 0.00 0.00 0.00 47 1010.8
20260504030008 57 74 2.0 2.0 0.00 0.00 0.00 46 1010.6
20260504025508 58 75 1.0 2.0 0.00 0.00 0.00 44 1010.6
20260504025008 60 73 2.0 3.0 0.00 0.00 0.00 41 1010.5
20260504024508 61 326 0.0 0.0 0.00 0.00 0.00 40 1010.4
20260504024009 62 313 0.0 1.0 0.00 0.00 0.00 39 1010.4
20260504023508 63 41 0.0 1.0 0.00 0.00 0.00 37 1010.3
20260504023009 64 229 0.0 0.0 0.00 0.00 0.00 35 1010.3
20260504022509 65 104 2.0 2.0 0.00 0.00 0.00 31 1010.2
20260504022009 66 103 1.0 2.0 0.00 0.00 0.00 30 1010.2
20260504021509 67 84 1.0 2.0 0.00 0.00 0.00 26 1010.2
20260504021009 68 0 0.0 0.0 0.00 0.00 0.00 25 1010.2
20260504020508 70 154 0.0 1.0 0.00 0.00 0.00 25 1010.2
20260504020008 71 321 0.0 0.0 0.00 0.00 0.00 23 1010.2
20260504015508 72 0 0.0 0.0 0.00 0.00 0.00 21 1010.2
20260504015008 72 148 0.0 1.0 0.00 0.00 0.00 19 1010.2
20260504014508 73 194 1.0 2.0 0.00 0.00 0.00 19 1010.2
20260504014009 73 247 2.0 2.0 0.00 0.00 0.00 20 1010.3
20260504013509 74 292 2.0 2.0 0.00 0.00 0.00 22 1010.3
20260504013009 74 294 3.0 4.0 0.00 0.00 0.00 21 1010.3
20260504012508 74 270 2.0 2.0 0.00 0.00 0.00 19 1010.3
20260504012009 74 269 4.0 6.0 0.00 0.00 0.00 19 1010.3
20260504011508 73 283 3.0 4.0 0.00 0.00 0.00 20 1010.3
20260504011008 73 263 4.0 7.0 0.00 0.00 0.00 19 1010.4
20260504010508 73 260 5.0 7.0 0.00 0.00 0.00 18 1010.4
20260504010009 73 266 6.0 9.0 0.00 0.00 0.00 18 1010.4
20260504005509 74 273 5.0 7.0 0.00 0.00 0.00 19 1010.4
20260504005008 74 300 5.0 11.0 0.00 0.00 0.00 19 1010.5
20260504004508 75 264 6.0 7.0 0.00 0.00 0.00 16 1010.4